Time,TemperatureF,DewpointF,PressureIn,WindDirection,WindDirectionDegrees,WindSpeedMPH,WindSpeedGustMPH,Humidity,HourlyPrecipIn,Conditions,Clouds,dailyrainin,SoftwareType,DateUTC
2013-05-14 00:01:00,54.5,51.0,29.93,NE,40,0.0,-999.0,89,-99.99,,,0.00,weatherlink.com 1.10,2013-05-14 07:01:00,
2013-05-14 00:16:00,54.1,51.0,29.92,NE,40,0.0,-999.0,90,-99.99,,,0.00,weatherlink.com 1.10,2013-05-14 07:16:00,
2013-05-14 00:31:00,53.6,51.0,29.92,NE,40,0.0,-999.0,90,-99.99,,,0.00,weatherlink.com 1.10,2013-05-14 07:31:00,
2013-05-14 00:46:00,53.2,51.0,29.91,NE,40,0.0,-999.0,91,-99.99,,,0.00,weatherlink.com 1.10,2013-05-14 07:46:00,
2013-05-14 01:01:00,52.9,51.0,29.92,NE,40,0.0,-999.0,92,-99.99,,,0.00,weatherlink.com 1.10,2013-05-14 08:01:00,
2013-05-14 01:16:00,52.4,50.0,29.91,NE,40,0.0,-999.0,92,-99.99,,,0.00,weatherlink.com 1.10,2013-05-14 08:16:00,
2013-05-14 01:31:00,52.1,50.0,29.91,NE,40,0.0,-999.0,92,-99.99,,,0.00,weatherlink.com 1.10,2013-05-14 08:31:00,
2013-05-14 01:46:00,51.7,50.0,29.90,NE,40,0.0,-999.0,92,-99.99,,,0.00,weatherlink.com 1.10,2013-05-14 08:46:00,
2013-05-14 02:01:00,51.4,50.0,29.91,NE,40,0.0,-999.0,93,-99.99,,,0.00,weatherlink.com 1.10,2013-05-14 09:01:00,
2013-05-14 02:16:00,51.3,49.0,29.91,NE,40,0.0,-999.0,93,-99.99,,,0.00,weatherlink.com 1.10,2013-05-14 09:16:00,
2013-05-14 02:31:00,51.1,49.0,29.91,NE,40,0.0,-999.0,93,-99.99,,,0.00,weatherlink.com 1.10,2013-05-14 09:31:00,
2013-05-14 02:46:00,50.8,49.0,29.90,NE,40,0.0,-999.0,93,-99.99,,,0.00,weatherlink.com 1.10,2013-05-14 09:46:00,
2013-05-14 03:01:00,50.5,49.0,29.90,NE,40,0.0,-999.0,93,-99.99,,,0.00,weatherlink.com 1.10,2013-05-14 10:01:00,
2013-05-14 03:16:00,50.2,49.0,29.89,NE,40,0.0,-999.0,94,-99.99,,,0.00,weatherlink.com 1.10,2013-05-14 10:16:00,
2013-05-14 03:31:00,49.9,48.0,29.90,NE,40,0.0,-999.0,93,-99.99,,,0.00,weatherlink.com 1.10,2013-05-14 10:31:00,
2013-05-14 03:46:00,49.7,48.0,29.90,NE,40,0.0,-999.0,94,-99.99,,,0.00,weatherlink.com 1.10,2013-05-14 10:46:00,
2013-05-14 04:01:00,49.4,48.0,29.90,NE,40,0.0,-999.0,94,-99.99,,,0.00,weatherlink.com 1.10,2013-05-14 11:01:00,
2013-05-14 04:16:00,49.3,48.0,29.90,NE,40,0.0,-999.0,94,-99.99,,,0.00,weatherlink.com 1.10,2013-05-14 11:16:00,
2013-05-14 04:31:00,49.1,48.0,29.90,NE,40,0.0,-999.0,94,-99.99,,,0.00,weatherlink.com 1.10,2013-05-14 11:31:00,
2013-05-14 04:46:00,49.0,47.0,29.90,NE,40,0.0,-999.0,94,-99.99,,,0.00,weatherlink.com 1.10,2013-05-14 11:46:00,
2013-05-14 05:01:00,48.8,47.0,29.90,NE,40,0.0,-999.0,94,-99.99,,,0.00,weatherlink.com 1.10,2013-05-14 12:01:00,
2013-05-14 05:16:00,48.6,47.0,29.91,NE,40,0.0,-999.0,95,-99.99,,,0.00,weatherlink.com 1.10,2013-05-14 12:16:00,
2013-05-14 05:31:00,48.4,47.0,29.91,NE,40,0.0,-999.0,94,-99.99,,,0.00,weatherlink.com 1.10,2013-05-14 12:31:00,
2013-05-14 05:46:00,48.2,47.0,29.90,NE,40,0.0,-999.0,94,-99.99,,,0.00,weatherlink.com 1.10,2013-05-14 12:46:00,
2013-05-14 06:01:00,48.1,47.0,29.91,NE,40,0.0,-999.0,95,-99.99,,,0.00,weatherlink.com 1.10,2013-05-14 13:01:00,
2013-05-14 06:16:00,48.1,47.0,29.91,NE,40,0.0,-999.0,95,-99.99,,,0.00,weatherlink.com 1.10,2013-05-14 13:16:00,
2013-05-14 06:31:00,48.3,47.0,29.91,NE,40,0.0,-999.0,95,-99.99,,,0.00,weatherlink.com 1.10,2013-05-14 13:31:00,
2013-05-14 06:46:00,48.4,47.0,29.91,NE,40,0.0,-999.0,96,-99.99,,,0.00,weatherlink.com 1.10,2013-05-14 13:46:00,
2013-05-14 07:01:00,48.8,48.0,29.92,NE,40,0.0,-999.0,96,-99.99,,,0.00,weatherlink.com 1.10,2013-05-14 14:01:00,
2013-05-14 07:16:00,49.3,48.0,29.92,NE,40,0.0,-999.0,96,-99.99,,,0.00,weatherlink.com 1.10,2013-05-14 14:16:00,
2013-05-14 07:31:00,49.7,49.0,29.92,NE,40,0.0,-999.0,96,-99.99,,,0.00,weatherlink.com 1.10,2013-05-14 14:31:00,
2013-05-14 07:46:00,50.8,50.0,29.92,NE,40,0.0,-999.0,97,-99.99,,,0.00,weatherlink.com 1.10,2013-05-14 14:46:00,
2013-05-14 08:01:00,51.8,51.0,29.92,NE,40,0.0,-999.0,97,-99.99,,,0.00,weatherlink.com 1.10,2013-05-14 15:01:00,
2013-05-14 08:16:00,53.1,52.0,29.92,NE,50,0.0,-999.0,97,-99.99,,,0.00,weatherlink.com 1.10,2013-05-14 15:16:00,
2013-05-14 08:32:00,54.8,53.0,29.93,SSE,167,0.0,-999.0,93,-99.99,,,0.00,weatherlink.com 1.10,2013-05-14 15:32:00,
2013-05-14 08:46:00,55.5,52.0,29.93,East,82,0.0,-999.0,88,-99.99,,,0.00,weatherlink.com 1.10,2013-05-14 15:46:00,
2013-05-14 09:01:00,57.5,53.0,29.93,South,190,0.0,-999.0,86,-99.99,,,0.00,weatherlink.com 1.10,2013-05-14 16:01:00,
2013-05-14 09:16:00,59.9,54.0,29.93,ESE,105,1.0,-999.0,80,-99.99,,,0.00,weatherlink.com 1.10,2013-05-14 16:16:00,
2013-05-14 09:31:00,62.3,54.0,29.93,South,174,0.0,-999.0,75,-99.99,,,0.00,weatherlink.com 1.10,2013-05-14 16:31:00,
2013-05-14 09:46:00,65.0,55.0,29.92,SSE,156,1.0,-999.0,71,-99.99,,,0.00,weatherlink.com 1.10,2013-05-14 16:46:00,
2013-05-14 10:01:00,67.4,55.0,29.92,South,172,0.0,-999.0,65,-99.99,,,0.00,weatherlink.com 1.10,2013-05-14 17:01:00,
2013-05-14 10:16:00,68.9,55.0,29.92,SSE,158,0.0,-999.0,62,-99.99,,,0.00,weatherlink.com 1.10,2013-05-14 17:16:00,
2013-05-14 10:31:00,68.8,54.0,29.92,NNE,14,1.0,-999.0,59,-99.99,,,0.00,weatherlink.com 1.10,2013-05-14 17:31:00,
2013-05-14 10:46:00,69.5,53.0,29.93,NE,39,2.0,-999.0,57,-99.99,,,0.00,weatherlink.com 1.10,2013-05-14 17:46:00,
2013-05-14 11:01:00,69.7,54.0,29.93,SW,234,3.0,-999.0,58,-99.99,,,0.00,weatherlink.com 1.10,2013-05-14 18:01:00,
2013-05-14 11:16:00,69.8,54.0,29.93,WSW,250,2.0,-999.0,58,-99.99,,,0.00,weatherlink.com 1.10,2013-05-14 18:16:00,
2013-05-14 11:31:00,70.7,55.0,29.93,WNW,295,0.0,-999.0,58,-99.99,,,0.00,weatherlink.com 1.10,2013-05-14 18:31:00,
2013-05-14 11:47:00,70.7,55.0,29.93,East,86,1.0,-999.0,57,-99.99,,,0.00,weatherlink.com 1.10,2013-05-14 18:47:00,
2013-05-14 12:02:00,72.0,55.0,29.93,SSE,157,1.0,-999.0,56,-99.99,,,0.00,weatherlink.com 1.10,2013-05-14 19:02:00,
2013-05-14 12:17:00,72.8,56.0,29.93,East,100,0.0,-999.0,55,-99.99,,,0.00,weatherlink.com 1.10,2013-05-14 19:17:00,
2013-05-14 12:32:00,73.8,55.0,29.92,ESE,117,2.0,-999.0,53,-99.99,,,0.00,weatherlink.com 1.10,2013-05-14 19:32:00,
2013-05-14 12:47:00,74.7,55.0,29.92,SE,144,0.0,-999.0,51,-99.99,,,0.00,weatherlink.com 1.10,2013-05-14 19:47:00,
2013-05-14 13:02:00,75.3,56.0,29.91,South,169,0.0,-999.0,51,-99.99,,,0.00,weatherlink.com 1.10,2013-05-14 20:02:00,
2013-05-14 13:17:00,76.0,57.0,29.91,South,188,0.0,-999.0,52,-99.99,,,0.00,weatherlink.com 1.10,2013-05-14 20:17:00,
2013-05-14 13:32:00,76.4,57.0,29.91,ESE,123,1.0,-999.0,51,-99.99,,,0.00,weatherlink.com 1.10,2013-05-14 20:32:00,
2013-05-14 13:47:00,76.3,57.0,29.90,SSE,148,2.0,-999.0,51,-99.99,,,0.00,weatherlink.com 1.10,2013-05-14 20:47:00,
2013-05-14 14:02:00,76.6,57.0,29.90,South,187,1.0,-999.0,51,-99.99,,,0.00,weatherlink.com 1.10,2013-05-14 21:02:00,
2013-05-14 14:17:00,77.0,56.0,29.89,South,186,2.0,-999.0,48,-99.99,,,0.00,weatherlink.com 1.10,2013-05-14 21:17:00,
2013-05-14 14:32:00,78.3,58.0,29.89,SSE,147,0.0,-999.0,50,-99.99,,,0.00,weatherlink.com 1.10,2013-05-14 21:32:00,
2013-05-14 14:47:00,78.8,58.0,29.89,SE,126,1.0,-999.0,49,-99.99,,,0.00,weatherlink.com 1.10,2013-05-14 21:47:00,
2013-05-14 15:02:00,79.7,58.0,29.88,North,355,0.0,-999.0,47,-99.99,,,0.00,weatherlink.com 1.10,2013-05-14 22:02:00,
2013-05-14 15:17:00,79.6,58.0,29.88,SSE,157,1.0,-999.0,47,-99.99,,,0.00,weatherlink.com 1.10,2013-05-14 22:17:00,
2013-05-14 15:32:00,80.0,58.0,29.88,South,180,1.0,-999.0,47,-99.99,,,0.00,weatherlink.com 1.10,2013-05-14 22:32:00,
2013-05-14 15:47:00,81.4,57.0,29.88,South,169,1.0,-999.0,44,-99.99,,,0.00,weatherlink.com 1.10,2013-05-14 22:47:00,
2013-05-14 16:02:00,81.8,58.0,29.88,SE,138,0.0,-999.0,45,-99.99,,,0.00,weatherlink.com 1.10,2013-05-14 23:02:00,
2013-05-14 16:17:00,81.3,57.0,29.88,South,188,3.0,-999.0,44,-99.99,,,0.00,weatherlink.com 1.10,2013-05-14 23:17:00,
2013-05-14 16:32:00,80.0,56.0,29.88,SSE,160,0.0,-999.0,44,-99.99,,,0.00,weatherlink.com 1.10,2013-05-14 23:32:00,
2013-05-14 16:47:00,79.3,57.0,29.88,SSW,194,3.0,-999.0,46,-99.99,,,0.00,weatherlink.com 1.10,2013-05-14 23:47:00,
2013-05-14 17:02:00,79.6,57.0,29.88,SSE,166,1.0,-999.0,46,-99.99,,,0.00,weatherlink.com 1.10,2013-05-15 00:02:00,
2013-05-14 17:17:00,79.6,56.0,29.88,South,169,2.0,-999.0,45,-99.99,,,0.00,weatherlink.com 1.10,2013-05-15 00:17:00,
2013-05-14 17:32:00,78.7,56.0,29.88,South,180,0.0,-999.0,45,-99.99,,,0.00,weatherlink.com 1.10,2013-05-15 00:32:00,
2013-05-14 17:47:00,77.3,55.0,29.88,SSW,196,1.0,-999.0,47,-99.99,,,0.00,weatherlink.com 1.10,2013-05-15 00:47:00,
2013-05-14 18:02:00,76.1,55.0,29.88,SE,146,2.0,-999.0,49,-99.99,,,0.00,weatherlink.com 1.10,2013-05-15 01:02:00,
2013-05-14 18:17:00,74.1,55.0,29.88,SE,144,0.0,-999.0,51,-99.99,,,0.00,weatherlink.com 1.10,2013-05-15 01:17:00,
2013-05-14 18:32:00,72.5,54.0,29.88,SSE,152,0.0,-999.0,53,-99.99,,,0.00,weatherlink.com 1.10,2013-05-15 01:32:00,
2013-05-14 18:47:00,70.4,53.0,29.88,SSE,156,1.0,-999.0,54,-99.99,,,0.00,weatherlink.com 1.10,2013-05-15 01:47:00,
2013-05-14 19:02:00,68.8,53.0,29.88,SSE,163,1.0,-999.0,57,-99.99,,,0.00,weatherlink.com 1.10,2013-05-15 02:02:00,
2013-05-14 19:17:00,67.6,52.0,29.89,SSE,159,0.0,-999.0,58,-99.99,,,0.00,weatherlink.com 1.10,2013-05-15 02:17:00,
2013-05-14 19:32:00,66.2,51.0,29.89,SE,127,0.0,-999.0,59,-99.99,,,0.00,weatherlink.com 1.10,2013-05-15 02:32:00,
2013-05-14 19:47:00,64.7,51.0,29.90,SE,127,0.0,-999.0,61,-99.99,,,0.00,weatherlink.com 1.10,2013-05-15 02:47:00,
2013-05-14 20:02:00,63.3,50.0,29.90,SE,127,0.0,-999.0,63,-99.99,,,0.00,weatherlink.com 1.10,2013-05-15 03:02:00,
2013-05-14 20:17:00,62.1,50.0,29.91,SE,127,0.0,-999.0,65,-99.99,,,0.00,weatherlink.com 1.10,2013-05-15 03:17:00,
2013-05-14 20:32:00,60.8,50.0,29.91,SE,127,0.0,-999.0,67,-99.99,,,0.00,weatherlink.com 1.10,2013-05-15 03:32:00,
2013-05-14 20:47:00,59.8,50.0,29.91,SE,127,0.0,-999.0,71,-99.99,,,0.00,weatherlink.com 1.10,2013-05-15 03:47:00,
2013-05-14 21:02:00,58.6,50.0,29.92,SE,127,0.0,-999.0,73,-99.99,,,0.00,weatherlink.com 1.10,2013-05-15 04:02:00,
2013-05-14 21:17:00,57.7,50.0,29.92,SE,127,0.0,-999.0,76,-99.99,,,0.00,weatherlink.com 1.10,2013-05-15 04:17:00,
2013-05-14 21:32:00,57.0,50.0,29.93,SE,127,0.0,-999.0,77,-99.99,,,0.00,weatherlink.com 1.10,2013-05-15 04:32:00,
2013-05-14 21:47:00,56.2,49.0,29.94,SE,127,0.0,-999.0,77,-99.99,,,0.00,weatherlink.com 1.10,2013-05-15 04:47:00,
2013-05-14 22:02:00,55.3,49.0,29.94,SE,127,0.0,-999.0,79,-99.99,,,0.00,weatherlink.com 1.10,2013-05-15 05:02:00,
2013-05-14 22:17:00,54.6,49.0,29.95,SE,127,0.0,-999.0,80,-99.99,,,0.00,weatherlink.com 1.10,2013-05-15 05:17:00,
2013-05-14 22:32:00,53.9,48.0,29.95,SE,127,0.0,-999.0,80,-99.99,,,0.00,weatherlink.com 1.10,2013-05-15 05:32:00,
2013-05-14 22:47:00,53.3,48.0,29.96,SE,127,0.0,-999.0,83,-99.99,,,0.00,weatherlink.com 1.10,2013-05-15 05:47:00,
2013-05-14 23:02:00,52.8,48.0,29.95,SE,127,0.0,-999.0,84,-99.99,,,0.00,weatherlink.com 1.10,2013-05-15 06:02:00,
2013-05-14 23:17:00,52.2,48.0,29.96,SE,127,0.0,-999.0,85,-99.99,,,0.00,weatherlink.com 1.10,2013-05-15 06:17:00,
2013-05-14 23:32:00,51.7,48.0,29.96,SE,127,0.0,-999.0,86,-99.99,,,0.00,weatherlink.com 1.10,2013-05-15 06:32:00,
2013-05-14 23:47:00,51.2,48.0,29.96,SE,127,0.0,-999.0,87,-99.99,,,0.00,weatherlink.com 1.10,2013-05-15 06:47:00,